| time (UTC) | temp F | wind direction | speed MPH | gust MPH | rain 1hr in | rain 24hr in | rain mn in | humidity % | barometer mb |
| 20260507220620 | 65 | 0.0 | 0.0 | 0.00 | 0.00 | 0.00 | 77 | 1010.2 | |
| 20260507214616 | 65 | 0.0 | 0.0 | 0.00 | 0.00 | 0.00 | 77 | 1010.1 | |
| 20260507202558 | 66 | 0.0 | 0.0 | 0.00 | 0.00 | 0.00 | 66 | 1009.8 | |
| 20260507200553 | 68 | 0.0 | 0.0 | 0.00 | 0.00 | 0.00 | 63 | 1010.0 | |
| 20260507194548 | 69 | 0.0 | 0.0 | 0.00 | 0.00 | 0.00 | 56 | 1009.5 | |
| 20260507192544 | 69 | 0.0 | 0.0 | 0.00 | 0.00 | 0.00 | 58 | 1009.5 | |
| 20260507190539 | 69 | 0.0 | 0.0 | 0.00 | 0.00 | 0.00 | 58 | 1009.4 | |
| 20260507184535 | 69 | 0.0 | 0.0 | 0.00 | 0.00 | 0.00 | 56 | 1008.9 | |
| 20260507182530 | 69 | 0.0 | 0.0 | 0.00 | 0.00 | 0.00 | 54 | 1008.8 | |
| 20260507180525 | 70 | 0.0 | 0.0 | 0.00 | 0.00 | 0.00 | 54 | 1008.8 | |
| 20260507174521 | 70 | 0.0 | 0.0 | 0.00 | 0.00 | 0.00 | 53 | 1008.7 | |
| 20260507172516 | 70 | 0.0 | 0.0 | 0.00 | 0.00 | 0.00 | 52 | 1008.8 | |
| 20260507164507 | 72 | 0.0 | 0.0 | 0.00 | 0.00 | 0.00 | 51 | 1008.3 | |
| 20260507160458 | 73 | 0.0 | 0.0 | 0.00 | 0.00 | 0.00 | 46 | 1007.8 | |
| 20260507154453 | 74 | 0.0 | 0.0 | 0.00 | 0.00 | 0.00 | 45 | 1007.7 | |
| 20260507152449 | 75 | 0.0 | 0.0 | 0.00 | 0.00 | 0.00 | 43 | 1008.1 | |
| 20260507150445 | 74 | 0.0 | 0.0 | 0.00 | 0.00 | 0.00 | 43 | 1008.3 | |
| 20260507144441 | 75 | 0.0 | 0.0 | 0.00 | 0.00 | 0.00 | 41 | 1008.3 | |
| 20260507142129 | 76 | 0.0 | 0.0 | 0.00 | 0.00 | 0.00 | 39 | 1009.2 | |
| 20260507140426 | 76 | 0.0 | 0.0 | 0.00 | 0.00 | 0.00 | 39 | 1009.2 | |
| 20260507130414 | 78 | 0.0 | 0.0 | 0.00 | 0.00 | 0.00 | 34 | 1009.9 | |
| 20260507125739 | 79 | 0.0 | 0.0 | 0.00 | 0.00 | 0.00 | 32 | 1009.8 | |
| 20260507123735 | 79 | 0.0 | 0.0 | 0.00 | 0.00 | 0.00 | 31 | 1009.9 | |
| 20260507121730 | 79 | 0.0 | 0.0 | 0.00 | 0.00 | 0.00 | 29 | 1010.2 | |
| 20260507115726 | 80 | 0.0 | 0.0 | 0.00 | 0.00 | 0.00 | 25 | 1010.0 | |
| 20260507113721 | 81 | 0.0 | 0.0 | 0.00 | 0.00 | 0.00 | 22 | 1010.3 | |
| 20260507093655 | 80 | 0.0 | 0.0 | 0.00 | 0.00 | 0.00 | 21 | 1010.5 | |
| 20260507091651 | 70 | 0.0 | 0.0 | 0.00 | 0.00 | 0.00 | 46 | 1010.8 | |
| 20260507085647 | 70 | 0.0 | 0.0 | 0.00 | 0.00 | 0.00 | 50 | 1011.2 | |
| 20260507081639 | 70 | 0.0 | 0.0 | 0.00 | 0.00 | 0.00 | 52 | 1011.9 | |
| 20260507075635 | 70 | 0.0 | 0.0 | 0.00 | 0.00 | 0.00 | 48 | 1012.0 | |
| 20260507065623 | 71 | 0.0 | 0.0 | 0.00 | 0.00 | 0.00 | 54 | 1012.9 | |
| 20260507063619 | 69 | 0.0 | 0.0 | 0.00 | 0.00 | 0.00 | 58 | 1013.4 | |
| 20260507061615 | 66 | 0.0 | 0.0 | 0.00 | 0.00 | 0.00 | 66 | 1013.6 | |
| 20260507055611 | 66 | 0.0 | 0.0 | 0.00 | 0.00 | 0.00 | 67 | 1013.4 | |
| 20260507053608 | 66 | 0.0 | 0.0 | 0.00 | 0.00 | 0.00 | 67 | 1013.2 | |
| 20260507051604 | 64 | 0.0 | 0.0 | 0.00 | 0.00 | 0.00 | 71 | 1013.5 | |
| 20260507045600 | 63 | 0.0 | 0.0 | 0.00 | 0.00 | 0.00 | 72 | 1013.6 | |
| 20260507043556 | 63 | 0.0 | 0.0 | 0.00 | 0.00 | 0.00 | 74 | 1013.8 | |
| 20260507041552 | 63 | 0.0 | 0.0 | 0.00 | 0.00 | 0.00 | 76 | 1013.9 | |
| 20260507035548 | 63 | 0.0 | 0.0 | 0.00 | 0.00 | 0.00 | 75 | 1013.8 | |
| 20260507033544 | 63 | 0.0 | 0.0 | 0.00 | 0.00 | 0.00 | 73 | 1013.6 | |
| 20260507031540 | 63 | 0.0 | 0.0 | 0.00 | 0.00 | 0.00 | 73 | 1013.4 | |
| 20260507025536 | 63 | 0.0 | 0.0 | 0.00 | 0.00 | 0.00 | 73 | 1013.3 | |
| 20260507023532 | 63 | 0.0 | 0.0 | 0.00 | 0.00 | 0.00 | 79 | 1013.6 | |
| 20260507021528 | 63 | 0.0 | 0.0 | 0.00 | 0.00 | 0.00 | 78 | 1013.8 | |
| 20260507015524 | 63 | 0.0 | 0.0 | 0.00 | 0.00 | 0.00 | 78 | 1013.4 | |
| 20260507013520 | 64 | 0.0 | 0.0 | 0.00 | 0.00 | 0.00 | 78 | 1013.8 | |
| 20260507011516 | 63 | 0.0 | 0.0 | 0.00 | 0.00 | 0.00 | 78 | 1013.9 | |
| 20260507005512 | 64 | 0.0 | 0.0 | 0.00 | 0.00 | 0.00 | 77 | 1014.1 | |
| 20260507003508 | 64 | 0.0 | 0.0 | 0.00 | 0.00 | 0.00 | 74 | 1014.0 | |
| 20260507001504 | 66 | 0.0 | 0.0 | 0.00 | 0.00 | 0.00 | 64 | 1014.0 | |
| 20260506235500 | 66 | 0.0 | 0.0 | 0.00 | 0.00 | 0.00 | 55 | 1013.9 | |
| 20260506233456 | 66 | 0.0 | 0.0 | 0.00 | 0.00 | 0.00 | 59 | 1014.0 | |
| 20260506231452 | 66 | 0.0 | 0.0 | 0.00 | 0.00 | 0.00 | 62 | 1013.9 | |
| 20260506225448 | 65 | 0.0 | 0.0 | 0.00 | 0.00 | 0.00 | 65 | 1013.8 |